Weather in Pilyugino

Russia / Orenburg Oblast     53°24′05″N   52°24′50″E
temp.,
°C
wind,
m/s
gust,
m/s
humid.,
%
clouds,
%
prec.,
mm/h
press.,
hPa
HPBL,
m
25 february, thu
thu2523:00−26nnw49940 0.0 1033141
02:00−28nw23960 0.0 103319
05:00−28wnw23950 0.0 103419
08:00−29w12960 0.0 103419
11:00−25sw11910 0.0 103460
14:00−21ssw348867 0.0 1033256
17:00−19sse479083 0.0 1031352
20:00−20s51089100 0.0 1028358
26 february, fri
fri2623:00−19s61197100 0.6 1026440
02:00−19sse51196100 0.6 1024499
05:00−19sse51294100 0.8 1022462
08:00−18se6129499 0.1 1020433
11:00−16se71191100 0.1 1020514
14:00−14se71089100 0.0 1019601
17:00−13se61090100 0.1 1019598
20:00−15se5129399 0.0 1017345
27 february, sat
sat2723:00−14sse7139299 0.1 1014403
02:00−12sse81594100 0.5 1008457
05:00−10sse81694100 4.4 1004545
08:00−7sse61295100 2.5 1000383
11:00+1wsw61195100 2.4 998541
14:000wsw61099100 0.1 998564
17:000wsw6109998 0.3 999598
20:000sw51098100 0.3 998506
28 february, sun
sun2823:000sw5997100 0.8 999490
02:00−1sw499798 0.6 998351
05:00−1sw599799 1.3 998407
08:00−4wnw4697100 0.6 1000220
11:00−8nw4695100 1.3 1001317
14:00−9wnw4693100 0.3 1004397
17:00−10nw4792100 0.4 1006481
20:00−13nw4895100 0.1 1008261
1 march, mon
mon123:00−16wnw369695 0.1 1011109
02:00−18wnw349781 0.0 101284
05:00−18wnw339783 0.1 101461
08:00−16wnw359684 0.1 1016157
11:00−14nnw369385 0.2 1017336
14:00−12nnw3592100 0.1 1019399
17:00−12nnw4692100 0.1 1020435
20:00−16nw3596100 0.1 102196